DW6157 Larvik NO current weather conditions

sailwx.info

Wind from 350

Air temperature 13.3° C
Dewpoint 1.3° C

Last reported at 2018-Oct-23 12:03 UTC.
Time now 2018-Oct-23 12:23 UTC

Location: N 59°05' E 010°08'.
View on Google Maps.

See reports from other nearby stations

  
Tides and Currents Weather Stations Pressure Air Temp Water Temp Dewpoint Dewpoint Depression Visibility Wind Speed Wind Dir Waves Ship Positions
date/time (UTC)wind fromknots sea level pressurealtimeterstation pressurevisibilityair tempwater tempwave heightnotes
2018-Oct-23 12:03 350 13.3
2018-Oct-23 11:48 061 0 gusting 7 13.3
2018-Oct-23 11:33 288 1 gusting 12 13.9
2018-Oct-23 11:18 320 0 gusting 9 13.9
2018-Oct-23 11:03 346 2 gusting 10 13.9
2018-Oct-23 10:48 327 5 gusting 14 13.9
2018-Oct-23 10:33 309 2 gusting 12 13.3
2018-Oct-23 10:18 299 1 gusting 13 13.3
2018-Oct-23 10:03 318 0 gusting 12 13.3
2018-Oct-23 09:48 327 1 gusting 12 12.8
2018-Oct-23 09:33 324 3 gusting 10 12.8
2018-Oct-23 09:18 320 1 gusting 8 12.2
2018-Oct-23 09:03 322 1 gusting 13 12.2
2018-Oct-23 08:48 325 2 gusting 9 11.7
2018-Oct-23 08:33 299 2 gusting 13 11.1
2018-Oct-23 08:18 299 2 gusting 11 11.1
2018-Oct-23 08:03 274 3 gusting 11 11.1
2018-Oct-23 07:48 318 3 gusting 13 10.6
2018-Oct-23 07:33 290 1 gusting 7 10.6
2018-Oct-23 07:18 320 5 gusting 11 10.6
2018-Oct-23 07:03 270 3 gusting 13 10.6
2018-Oct-23 06:48 319 4 gusting 13 10.6
2018-Oct-23 06:33 286 3 gusting 16 10.6
2018-Oct-23 06:18 299 2 gusting 12 10.6
2018-Oct-23 06:03 333 5 gusting 13 11.1
2018-Oct-23 05:48 264 2 gusting 10 11.1
2018-Oct-23 05:33 251 4 gusting 11 11.1
2018-Oct-23 05:18 308 6 gusting 13 11.1
2018-Oct-23 05:03 279 2 gusting 12 11.1
2018-Oct-23 04:48 328 11.1
2018-Oct-23 04:33 296 2 gusting 11 11.7
2018-Oct-23 04:18 322 2 gusting 10 11.1
2018-Oct-23 04:03 300 2 gusting 9 11.7
2018-Oct-23 03:48 329 3 gusting 12 11.7
2018-Oct-23 03:33 331 2 gusting 13 11.7
2018-Oct-23 03:18 312 1 gusting 12 11.1
2018-Oct-23 03:03 299 0 gusting 8 11.1
2018-Oct-23 02:48 270 2 gusting 9 11.1
2018-Oct-23 02:33 289 2 gusting 11 11.1
2018-Oct-23 02:18 237 4 gusting 10 11.1
2018-Oct-23 02:02 245 5 gusting 12 11.1
2018-Oct-23 01:47 315 5 gusting 10 10.6
2018-Oct-23 01:32 308 0 gusting 10 10.6
2018-Oct-23 01:17 269 10.0
2018-Oct-23 01:03 259 2 gusting 8 10.0
2018-Oct-23 00:47 257 0 gusting 7 10.0
2018-Oct-23 00:32 241 1 gusting 7 9.4
2018-Oct-23 00:17 275 2 gusting 8 9.4
2018-Oct-23 00:02 260 2 gusting 12 9.4
2018-Oct-22 23:47 225 3 gusting 13 9.4
2018-Oct-22 23:32 243 2 gusting 8 9.4
2018-Oct-22 23:17 314 1 gusting 11 9.4
2018-Oct-22 23:02 205 4 gusting 11 9.4
2018-Oct-22 22:47 232 6 gusting 13 9.4
2018-Oct-22 22:32 210 6 gusting 13 9.4
2018-Oct-22 22:17 262 5 gusting 12 9.4
2018-Oct-22 22:02 219 4 gusting 13 9.4
2018-Oct-22 21:47 223 5 gusting 15 9.4
2018-Oct-22 21:32 216 6 gusting 14 9.4
2018-Oct-22 21:17 222 6 gusting 14 9.4
2018-Oct-22 21:01 220 4 gusting 18 9.4
2018-Oct-22 20:46 231 8 gusting 18 9.4
2018-Oct-22 20:31 210 6 gusting 13 8.9
2018-Oct-22 20:16 228 7 gusting 17 9.4
2018-Oct-22 20:02 210 6 gusting 15 9.4
2018-Oct-22 19:47 248 6 gusting 14 9.4
2018-Oct-22 19:31 217 5 gusting 17 9.4
2018-Oct-22 19:16 234 6 gusting 14 9.4
2018-Oct-22 19:02 247 4 gusting 11 9.4
2018-Oct-22 18:47 217 6 gusting 14 9.4
2018-Oct-22 18:31 200 6 gusting 17 9.4
2018-Oct-22 18:16 216 6 gusting 14 8.9
2018-Oct-22 18:01 214 5 gusting 12 8.9
2018-Oct-22 17:46 174 5 gusting 10 8.9
2018-Oct-22 17:31 232 5 gusting 14 8.9
2018-Oct-22 17:16 237 4 gusting 10 9.4
2018-Oct-22 17:01 210 6 gusting 14 9.4
2018-Oct-22 16:46 219 2 gusting 8 9.4
2018-Oct-22 16:32 200 0 gusting 6 9.4
2018-Oct-22 16:16 210 2 gusting 8 9.4
2018-Oct-22 16:02 262 2 gusting 6 9.4
2018-Oct-22 15:48 205 2 gusting 8 9.4
2018-Oct-22 15:32 224 2 gusting 7 10.0
2018-Oct-22 15:16 222 0 gusting 6 10.0
2018-Oct-22 15:02 310 10.6
2018-Oct-22 14:47 318 10.6
2018-Oct-22 14:31 294 11.1
2018-Oct-22 14:16 285 0 gusting 7 11.1
2018-Oct-22 14:02 286 11.1
2018-Oct-22 13:47 278 1 gusting 10 11.1
2018-Oct-22 13:31 267 0 gusting 8 11.7
2018-Oct-22 13:16 308 4 gusting 11 11.7
2018-Oct-22 13:01 294 3 gusting 11 12.2
2018-Oct-22 12:46 291 1 gusting 8 12.8
2018-Oct-22 12:31 320 12.2
2018-Oct-22 12:16 281 0 gusting 10 12.2
2018-Oct-22 12:02 295 5 gusting 15 12.2
2018-Oct-22 11:46 280 1 gusting 12 11.7
2018-Oct-22 11:31 323 3 gusting 10 11.7
2018-Oct-22 11:17 317 11.7
2018-Oct-22 11:02 299 2 gusting 10 11.7
2018-Oct-22 10:46 331 3 gusting 9 11.1
2018-Oct-22 10:16 303 11.1
2018-Oct-22 10:01 279 10.6
2018-Oct-22 09:46 309 0 gusting 6 10.6
2018-Oct-22 09:31 261 0 gusting 3 10.0
2018-Oct-22 09:15 310 9.4
2018-Oct-22 09:00 336 9.4
2018-Oct-22 08:46 308 0 gusting 8 8.9
2018-Oct-22 08:31 236 1 gusting 9 8.9
2018-Oct-22 08:16 306 0 gusting 9 8.3
2018-Oct-22 08:01 224 8.3
2018-Oct-22 07:46 248 2 gusting 10 8.3
2018-Oct-22 07:31 284 1 gusting 8 8.3
2018-Oct-22 07:16 248 3 gusting 9 7.8
2018-Oct-22 07:00 238 1 gusting 7 7.8
2018-Oct-22 06:45 248 2 gusting 9 7.2
2018-Oct-22 06:30 271 1 gusting 6 6.7
2018-Oct-22 06:15 224 2 gusting 7 7.2
2018-Oct-22 06:00 248 1 gusting 10 6.7
2018-Oct-22 05:45 272 6.7
2018-Oct-22 05:30 214 2 gusting 7 6.7
2018-Oct-22 05:15 231 0 gusting 5 7.2
2018-Oct-22 05:00 359 0 gusting 6 7.2
2018-Oct-22 04:45 237 1 gusting 6 7.8
2018-Oct-22 04:30 231 1 gusting 9 7.8
2018-Oct-22 04:15 245 1 gusting 7 7.8
2018-Oct-22 04:00 243 0 gusting 7 7.8
2018-Oct-22 03:45 262 0 gusting 7 8.3
2018-Oct-22 03:30 214 1 gusting 7 8.3
2018-Oct-22 03:15 267 1 gusting 6 8.3
2018-Oct-22 03:00 250 8.3
2018-Oct-22 02:45 185 0 gusting 4 8.9
2018-Oct-22 02:29 210 1 gusting 9 8.9
2018-Oct-22 02:14 254 8.3
2018-Oct-22 01:44 287 8.9
2018-Oct-22 01:29 292 8.9
2018-Oct-22 01:14 222 1 gusting 6 9.4
2018-Oct-22 00:59 289 1 gusting 7 9.4
2018-Oct-22 00:44 215 0 gusting 7 9.4
2018-Oct-22 00:29 222 1 gusting 6 9.4
2018-Oct-22 00:14 237 0 gusting 7 9.4
2018-Oct-21 23:59 214 0 gusting 7 10.0
2018-Oct-21 23:44 229 1 gusting 6 10.0
2018-Oct-21 23:29 205 2 gusting 6 10.0
2018-Oct-21 23:14 239 0 gusting 9 10.0
2018-Oct-21 22:59 216 3 gusting 8 10.0
2018-Oct-21 22:44 205 0 gusting 4 10.0
2018-Oct-21 22:29 253 10.0
2018-Oct-21 22:14 221 0 gusting 4 10.6
2018-Oct-21 21:59 247 11.1
2018-Oct-21 21:44 216 1 gusting 7 11.7
2018-Oct-21 21:29 242 11.7
2018-Oct-21 21:14 292 12.2
2018-Oct-21 20:59 310 12.2
2018-Oct-21 20:44 258 12.2
2018-Oct-21 20:29 294 13.3
2018-Oct-21 20:14 305 2 gusting 7 13.9
2018-Oct-21 19:59 272 1 gusting 9 13.9
2018-Oct-21 19:44 339 2 gusting 10 13.3
2018-Oct-21 19:29 266 13.3
2018-Oct-21 19:14 260 13.3
2018-Oct-21 18:59 200 0 gusting 7 13.3
2018-Oct-21 18:44 218 0 gusting 11 13.3
2018-Oct-21 18:29 210 5 gusting 9 13.3
2018-Oct-21 18:14 226 6 gusting 14 13.3
2018-Oct-21 17:59 205 5 gusting 16 13.3
2018-Oct-21 17:43 205 7 gusting 16 13.3
2018-Oct-21 17:28 228 7 gusting 19 13.3
2018-Oct-21 17:13 221 5 gusting 13 13.3
2018-Oct-21 16:58 205 7 gusting 15 13.3
2018-Oct-21 16:43 210 6 gusting 19 13.3
2018-Oct-21 16:28 235 7 gusting 16 13.3
2018-Oct-21 16:13 214 7 gusting 15 12.8
2018-Oct-21 15:58 216 7 gusting 17 12.8
2018-Oct-21 15:43 214 7 gusting 18 12.8
2018-Oct-21 15:28 196 7 gusting 14 12.8
2018-Oct-21 15:13 210 8 gusting 21 13.3
2018-Oct-21 14:58 183 10 gusting 16 13.3
2018-Oct-21 14:43 194 6 gusting 13 13.3
2018-Oct-21 14:28 210 5 gusting 12 13.3
2018-Oct-21 14:13 216 9 gusting 16 13.3
2018-Oct-21 13:58 214 10 gusting 18 13.9
2018-Oct-21 13:43 256 8 gusting 17 13.9
2018-Oct-21 13:28 205 6 gusting 14 13.9
2018-Oct-21 13:13 210 5 gusting 15 13.9
2018-Oct-21 12:58 195 6 gusting 14 13.9
2018-Oct-21 12:43 227 7 gusting 16 14.4
2018-Oct-21 12:28 196 6 gusting 12 14.4
2018-Oct-21 12:13 216 6 gusting 12 14.4